M I D A S
Marine Information and Data Acquisition System
Tripno 1367 of the Zeeleeuw from 2007-11-28 07:47:49 to 2007-11-28 14:43:21
Back to CruiseResearch ActivitiesStationsMapUnderway DataData graphs

EquipmentUnitsComment
TimeDGPSUTC
LatitudeDGPSDM.mWGS84
LongitudeDGPSDM.mWGS84
TemperatureSBE03/SBE38deg celciusITS90
ConductivitySBE21S/mITS90
SalinitySBE21 Practical Salinity Units
ChlorophylAChelsea fluorimeterg/lCalibrated in Aceton
Missing or incorrect values are displayed as -999
Sea surface data collected by the RV Zeeleeuw from 2007-11-28 07:53:35 to 2007-11-28 14:54:06
                                                                                    Next 1000 lines
Time Latitude Longitude Temperature Conductivity Salinity ChlorophylA
2007-11-28 07:53:44 51°13.599 2°56.094 -999 -999 -999 -999
2007-11-28 07:53:49 51°13.599 2°56.091 -999 -999 -999 -999
2007-11-28 07:53:55 51°13.6 2°56.087 -999 -999 -999 -999
2007-11-28 07:54:00 51°13.601 2°56.083 -999 -999 -999 -999
2007-11-28 07:54:04 51°13.602 2°56.079 -999 -999 -999 -999
2007-11-28 07:54:10 51°13.603 2°56.073 -999 -999 -999 -999
2007-11-28 07:54:15 51°13.605 2°56.067 -999 -999 -999 -999
2007-11-28 07:54:20 51°13.607 2°56.061 -999 -999 -999 -999
2007-11-28 07:54:25 51°13.609 2°56.054 -999 -999 -999 -999
2007-11-28 07:54:30 51°13.611 2°56.046 -999 -999 -999 -999
2007-11-28 07:54:35 51°13.613 2°56.037 -999 -999 -999 -999
2007-11-28 07:54:40 51°13.616 2°56.028 -999 -999 -999 -999
2007-11-28 07:54:45 51°13.619 2°56.019 -999 -999 -999 -999
2007-11-28 07:54:50 51°13.621 2°56.009 -999 -999 -999 -999
2007-11-28 07:54:55 51°13.624 2°55.998 -999 -999 -999 -999
2007-11-28 07:55:00 51°13.627 2°55.988 -999 -999 -999 -999
2007-11-28 07:55:05 51°13.63 2°55.977 -999 -999 -999 -999
2007-11-28 07:55:10 51°13.633 2°55.966 -999 -999 -999 -999
2007-11-28 07:55:15 51°13.637 2°55.955 -999 -999 -999 -999
2007-11-28 07:55:20 51°13.64 2°55.944 -999 -999 -999 -999
2007-11-28 07:55:25 51°13.644 2°55.933 -999 -999 -999 -999
2007-11-28 07:55:30 51°13.648 2°55.922 -999 -999 -999 -999
2007-11-28 07:55:35 51°13.652 2°55.911 -999 -999 -999 -999
2007-11-28 07:55:40 51°13.656 2°55.9 -999 -999 -999 -999
2007-11-28 07:55:45 51°13.66 2°55.89 -999 -999 -999 -999
2007-11-28 07:55:50 51°13.664 2°55.88 -999 -999 -999 -999
2007-11-28 07:55:55 51°13.667 2°55.87 -999 -999 -999 -999
2007-11-28 07:56:00 51°13.671 2°55.861 -999 -999 -999 -999
2007-11-28 07:56:05 51°13.674 2°55.851 -999 -999 -999 -999
2007-11-28 07:56:10 51°13.677 2°55.842 -999 -999 -999 -999
2007-11-28 07:56:15 51°13.68 2°55.833 -999 -999 -999 -999
2007-11-28 07:56:20 51°13.683 2°55.824 -999 -999 -999 -999
2007-11-28 07:56:24 51°13.686 2°55.817 -999 -999 -999 -999
2007-11-28 07:56:30 51°13.689 2°55.807 -999 -999 -999 -999
2007-11-28 07:56:35 51°13.692 2°55.799 -999 -999 -999 -999
2007-11-28 07:56:40 51°13.695 2°55.791 -999 -999 -999 -999
2007-11-28 07:56:45 51°13.697 2°55.783 -999 -999 -999 -999
2007-11-28 07:56:50 51°13.699 2°55.776 -999 -999 -999 -999
2007-11-28 07:56:56 51°13.702 2°55.767 -999 -999 -999 -999
2007-11-28 07:57:00 51°13.703 2°55.761 -999 -999 -999 -999
2007-11-28 07:57:04 51°13.705 2°55.756 -999 -999 -999 -999
2007-11-28 07:57:09 51°13.706 2°55.75 -999 -999 -999 -999
2007-11-28 07:57:15 51°13.708 2°55.742 -999 -999 -999 -999
2007-11-28 07:57:20 51°13.71 2°55.737 -999 -999 -999 -999
2007-11-28 07:57:24 51°13.711 2°55.734 -999 -999 -999 -999
2007-11-28 07:57:29 51°13.711 2°55.73 -999 -999 -999 -999
2007-11-28 07:57:35 51°13.713 2°55.725 -999 -999 -999 -999
2007-11-28 07:57:40 51°13.713 2°55.722 -999 -999 -999 -999
2007-11-28 07:57:44 51°13.713 2°55.719 -999 -999 -999 -999
2007-11-28 07:57:49 51°13.714 2°55.717 -999 -999 -999 -999
2007-11-28 07:57:55 51°13.714 2°55.713 -999 -999 -999 -999
2007-11-28 07:58:00 51°13.715 2°55.711 -999 -999 -999 -999
2007-11-28 07:58:04 51°13.715 2°55.709 -999 -999 -999 -999
2007-11-28 07:58:09 51°13.715 2°55.707 -999 -999 -999 -999
2007-11-28 07:58:15 51°13.716 2°55.706 -999 -999 -999 -999
2007-11-28 07:58:20 51°13.716 2°55.704 -999 -999 -999 -999
2007-11-28 07:58:24 51°13.716 2°55.703 -999 -999 -999 -999
2007-11-28 07:58:30 51°13.717 2°55.702 -999 -999 -999 -999
2007-11-28 07:58:35 51°13.717 2°55.701 -999 -999 -999 -999
2007-11-28 07:58:40 51°13.717 2°55.7 -999 -999 -999 -999
2007-11-28 07:58:44 51°13.718 2°55.7 -999 -999 -999 -999
2007-11-28 07:58:50 51°13.719 2°55.699 -999 -999 -999 -999
2007-11-28 07:58:55 51°13.72 2°55.699 -999 -999 -999 -999
2007-11-28 07:59:00 51°13.721 2°55.7 -999 -999 -999 -999
2007-11-28 07:59:04 51°13.722 2°55.7 -999 -999 -999 -999
2007-11-28 07:59:10 51°13.724 2°55.701 -999 -999 -999 -999
2007-11-28 07:59:15 51°13.726 2°55.702 -999 -999 -999 -999
2007-11-28 07:59:20 51°13.729 2°55.704 -999 -999 -999 -999
2007-11-28 07:59:24 51°13.732 2°55.705 -999 -999 -999 -999
2007-11-28 07:59:29 51°13.736 2°55.706 -999 -999 -999 -999
2007-11-28 07:59:36 51°13.743 2°55.705 -999 -999 -999 -999
2007-11-28 07:59:40 51°13.747 2°55.704 -999 -999 -999 -999
2007-11-28 07:59:44 51°13.752 2°55.702 -999 -999 -999 -999
2007-11-28 07:59:50 51°13.76 2°55.697 -999 -999 -999 -999
2007-11-28 07:59:56 51°13.767 2°55.692 -999 -999 -999 -999
2007-11-28 08:00:00 51°13.772 2°55.689 -999 -999 -999 -999
2007-11-28 08:00:04 51°13.777 2°55.684 -999 -999 -999 -999
2007-11-28 08:00:10 51°13.786 2°55.677 -999 -999 -999 -999
2007-11-28 08:00:16 51°13.794 2°55.67 -999 -999 -999 -999
2007-11-28 08:00:20 51°13.8 2°55.665 -999 -999 -999 -999
2007-11-28 08:00:24 51°13.806 2°55.66 -999 -999 -999 -999
2007-11-28 08:00:30 51°13.816 2°55.652 -999 -999 -999 -999
2007-11-28 08:00:36 51°13.826 2°55.644 -999 -999 -999 -999
2007-11-28 08:00:40 51°13.833 2°55.639 -999 -999 -999 -999
2007-11-28 08:00:44 51°13.84 2°55.634 -999 -999 -999 -999
2007-11-28 08:00:50 51°13.851 2°55.625 -999 -999 -999 -999
2007-11-28 08:00:55 51°13.86 2°55.618 -999 -999 -999 -999
2007-11-28 08:01:00 51°13.869 2°55.61 -999 -999 -999 -999
2007-11-28 08:01:04 51°13.877 2°55.604 -999 -999 -999 -999
2007-11-28 08:01:10 51°13.889 2°55.595 -999 -999 -999 -999
2007-11-28 08:01:15 51°13.899 2°55.587 -999 -999 -999 -999
2007-11-28 08:01:20 51°13.909 2°55.579 -999 -999 -999 -999
2007-11-28 08:01:24 51°13.918 2°55.572 -999 -999 -999 -999
2007-11-28 08:01:30 51°13.93 2°55.562 -999 -999 -999 -999
2007-11-28 08:01:36 51°13.943 2°55.553 -999 -999 -999 -999
2007-11-28 08:01:40 51°13.951 2°55.546 -999 -999 -999 -999
2007-11-28 08:01:44 51°13.96 2°55.54 -999 -999 -999 -999
2007-11-28 08:01:49 51°13.97 2°55.531 -999 -999 -999 -999
2007-11-28 08:01:56 51°13.985 2°55.52 -999 -999 -999 -999
2007-11-28 08:02:00 51°13.994 2°55.514 -999 -999 -999 -999
2007-11-28 08:02:04 51°14.003 2°55.507 -999 -999 -999 -999
2007-11-28 08:02:10 51°14.015 2°55.497 -999 -999 -999 -999
2007-11-28 08:02:14 51°14.024 2°55.491 -999 -999 -999 -999
2007-11-28 08:02:20 51°14.037 2°55.481 -999 -999 -999 -999
2007-11-28 08:02:24 51°14.045 2°55.474 -999 -999 -999 -999
2007-11-28 08:02:29 51°14.056 2°55.465 -999 -999 -999 -999
2007-11-28 08:02:36 51°14.071 2°55.453 -999 -999 -999 -999
2007-11-28 08:02:40 51°14.079 2°55.447 -999 -999 -999 -999
2007-11-28 08:02:44 51°14.087 2°55.44 -999 -999 -999 -999
2007-11-28 08:02:50 51°14.1 2°55.431 -999 -999 -999 -999
2007-11-28 08:02:56 51°14.112 2°55.421 -999 -999 -999 -999
2007-11-28 08:03:00 51°14.12 2°55.415 -999 -999 -999 -999
2007-11-28 08:03:04 51°14.128 2°55.409 -999 -999 -999 -999
2007-11-28 08:03:10 51°14.139 2°55.4 -999 -999 -999 -999
2007-11-28 08:03:15 51°14.149 2°55.392 -999 -999 -999 -999
2007-11-28 08:03:20 51°14.158 2°55.383 -999 -999 -999 -999
2007-11-28 08:03:25 51°14.168 2°55.374 -999 -999 -999 -999
2007-11-28 08:03:30 51°14.177 2°55.365 -999 -999 -999 -999
2007-11-28 08:03:35 51°14.186 2°55.356 -999 -999 -999 -999
2007-11-28 08:03:40 51°14.194 2°55.346 -999 -999 -999 -999
2007-11-28 08:03:44 51°14.201 2°55.338 -999 -999 -999 -999
2007-11-28 08:03:50 51°14.211 2°55.326 -999 -999 -999 -999
2007-11-28 08:03:55 51°14.22 2°55.316 -999 -999 -999 -999
2007-11-28 08:04:00 51°14.228 2°55.306 -999 -999 -999 -999
2007-11-28 08:04:04 51°14.234 2°55.297 -999 -999 -999 -999
2007-11-28 08:04:09 51°14.242 2°55.286 -999 -999 -999 -999
2007-11-28 08:04:16 51°14.252 2°55.27 -999 -999 -999 -999
2007-11-28 08:04:20 51°14.258 2°55.261 -999 -999 -999 -999
2007-11-28 08:04:24 51°14.264 2°55.251 -999 -999 -999 -999
2007-11-28 08:04:29 51°14.271 2°55.239 -999 -999 -999 -999
2007-11-28 08:04:34 51°14.278 2°55.227 -999 -999 -999 -999
2007-11-28 08:04:39 51°14.285 2°55.215 -999 -999 -999 -999
2007-11-28 08:04:44 51°14.291 2°55.202 -999 -999 -999 -999
2007-11-28 08:04:49 51°14.298 2°55.189 -999 -999 -999 -999
2007-11-28 08:04:55 51°14.306 2°55.172 -999 -999 -999 -999
2007-11-28 08:05:00 51°14.314 2°55.157 -999 -999 -999 -999
2007-11-28 08:05:04 51°14.32 2°55.145 -999 -999 -999 -999
2007-11-28 08:05:10 51°14.329 2°55.126 -999 -999 -999 -999
2007-11-28 08:05:15 51°14.337 2°55.109 -999 -999 -999 -999
2007-11-28 08:05:19 51°14.344 2°55.095 -999 -999 -999 -999
2007-11-28 08:05:24 51°14.352 2°55.077 -999 -999 -999 -999
2007-11-28 08:05:30 51°14.362 2°55.054 -999 -999 -999 -999
2007-11-28 08:05:35 51°14.371 2°55.035 -999 -999 -999 -999
2007-11-28 08:05:40 51°14.379 2°55.016 -999 -999 -999 -999
2007-11-28 08:05:44 51°14.386 2°55 -999 -999 -999 -999
2007-11-28 08:05:50 51°14.397 2°54.975 -999 -999 -999 -999
2007-11-28 08:05:55 51°14.406 2°54.954 -999 -999 -999 -999
2007-11-28 08:06:00 51°14.415 2°54.932 -999 -999 -999 -999
2007-11-28 08:06:04 51°14.422 2°54.914 -999 -999 -999 -999
2007-11-28 08:06:09 51°14.431 2°54.891 -999 -999 -999 -999
2007-11-28 08:06:15 51°14.442 2°54.864 -999 -999 -999 -999
2007-11-28 08:06:20 51°14.452 2°54.841 -999 -999 -999 -999
2007-11-28 08:06:24 51°14.46 2°54.823 -999 -999 -999 -999
2007-11-28 08:06:29 51°14.47 2°54.8 -999 -999 -999 -999
2007-11-28 08:06:35 51°14.483 2°54.773 -999 -999 -999 -999
2007-11-28 08:06:40 51°14.495 2°54.752 -999 -999 -999 -999
2007-11-28 08:06:44 51°14.504 2°54.735 -999 -999 -999 -999
2007-11-28 08:06:49 51°14.516 2°54.715 -999 -999 -999 -999
2007-11-28 08:06:55 51°14.531 2°54.691 -999 -999 -999 -999
2007-11-28 08:06:59 51°14.542 2°54.676 -999 -999 -999 -999
2007-11-28 08:07:04 51°14.555 2°54.657 -999 -999 -999 -999
2007-11-28 08:07:09 51°14.568 2°54.639 -999 -999 -999 -999
2007-11-28 08:07:15 51°14.585 2°54.62 -999 -999 -999 -999
2007-11-28 08:07:19 51°14.596 2°54.606 -999 -999 -999 -999
2007-11-28 08:07:24 51°14.611 2°54.591 -999 -999 -999 -999
2007-11-28 08:07:29 51°14.625 2°54.576 -999 -999 -999 -999
2007-11-28 08:07:34 51°14.64 2°54.561 -999 -999 -999 -999
2007-11-28 08:07:39 51°14.655 2°54.547 -999 -999 -999 -999
2007-11-28 08:07:44 51°14.67 2°54.533 -999 -999 -999 -999
2007-11-28 08:07:48 51°14.682 2°54.522 -999 -999 -999 -999
2007-11-28 08:07:53 51°14.697 2°54.508 -999 -999 -999 -999
2007-11-28 08:07:58 51°14.712 2°54.494 -999 -999 -999 -999
2007-11-28 08:08:02 51°14.724 2°54.483 -999 -999 -999 -999
2007-11-28 08:08:08 51°14.742 2°54.467 -999 -999 -999 -999
2007-11-28 08:08:12 51°14.754 2°54.457 -999 -999 -999 -999
2007-11-28 08:08:17 51°14.769 2°54.443 -999 -999 -999 -999
2007-11-28 08:08:21 51°14.781 2°54.432 -999 -999 -999 -999
2007-11-28 08:08:26 51°14.796 2°54.419 -999 -999 -999 -999
2007-11-28 08:08:31 51°14.811 2°54.405 -999 -999 -999 -999
2007-11-28 08:08:36 51°14.827 2°54.391 -999 -999 -999 -999
2007-11-28 08:08:40 51°14.838 2°54.38 -999 -999 -999 -999
2007-11-28 08:08:46 51°14.856 2°54.363 -999 -999 -999 -999
2007-11-28 08:08:51 51°14.871 2°54.349 -999 -999 -999 -999
2007-11-28 08:08:56 51°14.886 2°54.335 -999 -999 -999 -999
2007-11-28 08:09:00 51°14.898 2°54.324 -999 -999 -999 -999
2007-11-28 08:09:06 51°14.916 2°54.308 -999 -999 -999 -999
2007-11-28 08:09:11 51°14.931 2°54.295 -999 -999 -999 -999
2007-11-28 08:09:16 51°14.946 2°54.281 -999 -999 -999 -999
2007-11-28 08:09:20 51°14.957 2°54.27 -999 -999 -999 -999
2007-11-28 08:09:26 51°14.975 2°54.255 -999 -999 -999 -999
2007-11-28 08:09:31 51°14.99 2°54.241 -999 -999 -999 -999
2007-11-28 08:09:36 51°15.004 2°54.228 -999 -999 -999 -999
2007-11-28 08:09:41 51°15.018 2°54.213 -999 -999 -999 -999
2007-11-28 08:09:46 51°15.032 2°54.198 -999 -999 -999 -999
2007-11-28 08:09:51 51°15.046 2°54.182 -999 -999 -999 -999
2007-11-28 08:09:56 51°15.06 2°54.166 -999 -999 -999 -999
2007-11-28 08:10:01 51°15.073 2°54.15 -999 -999 -999 -999
2007-11-28 08:10:06 51°15.087 2°54.134 -999 -999 -999 -999
2007-11-28 08:10:12 51°15.103 2°54.114 -999 -999 -999 -999
2007-11-28 08:10:17 51°15.117 2°54.097 -999 -999 -999 -999
2007-11-28 08:10:21 51°15.128 2°54.084 -999 -999 -999 -999
2007-11-28 08:10:27 51°15.145 2°54.065 -999 -999 -999 -999
2007-11-28 08:10:32 51°15.159 2°54.05 -999 -999 -999 -999
2007-11-28 08:10:37 51°15.174 2°54.036 -999 -999 -999 -999
2007-11-28 08:10:41 51°15.186 2°54.026 -999 -999 -999 -999
2007-11-28 08:10:47 51°15.205 2°54.012 -999 -999 -999 -999
2007-11-28 08:10:52 51°15.221 2°54.002 -999 -999 -999 -999
2007-11-28 08:10:57 51°15.237 2°53.992 -999 -999 -999 -999
2007-11-28 08:11:01 51°15.25 2°53.985 -999 -999 -999 -999
2007-11-28 08:11:07 51°15.269 2°53.975 -999 -999 -999 -999
2007-11-28 08:11:12 51°15.285 2°53.966 -999 -999 -999 -999
2007-11-28 08:11:17 51°15.301 2°53.955 -999 -999 -999 -999
2007-11-28 08:11:21 51°15.314 2°53.948 -999 -999 -999 -999
2007-11-28 08:11:27 51°15.333 2°53.935 -999 -999 -999 -999
2007-11-28 08:11:32 51°15.349 2°53.925 -999 -999 -999 -999
2007-11-28 08:11:37 51°15.365 2°53.913 -999 -999 -999 -999
2007-11-28 08:11:41 51°15.378 2°53.904 -999 -999 -999 -999
2007-11-28 08:11:47 51°15.396 2°53.889 -999 -999 -999 -999
2007-11-28 08:11:52 51°15.411 2°53.876 -999 -999 -999 -999
2007-11-28 08:11:57 51°15.427 2°53.863 -999 -999 -999 -999
2007-11-28 08:12:01 51°15.439 2°53.852 -999 -999 -999 -999
2007-11-28 08:12:07 51°15.457 2°53.836 -999 -999 -999 -999
2007-11-28 08:12:12 51°15.473 2°53.823 -999 -999 -999 -999
2007-11-28 08:12:17 51°15.488 2°53.81 -999 -999 -999 -999
2007-11-28 08:12:21 51°15.501 2°53.799 -999 -999 -999 -999
2007-11-28 08:12:27 51°15.519 2°53.784 -999 -999 -999 -999
2007-11-28 08:12:32 51°15.534 2°53.771 -999 -999 -999 -999
2007-11-28 08:12:37 51°15.55 2°53.759 -999 -999 -999 -999
2007-11-28 08:12:41 51°15.562 2°53.749 -999 -999 -999 -999
2007-11-28 08:12:47 51°15.581 2°53.734 -999 -999 -999 -999
2007-11-28 08:12:52 51°15.597 2°53.722 -999 -999 -999 -999
2007-11-28 08:12:57 51°15.613 2°53.711 -999 -999 -999 -999
2007-11-28 08:13:01 51°15.625 2°53.702 -999 -999 -999 -999
2007-11-28 08:13:07 51°15.645 2°53.689 -999 -999 -999 -999
2007-11-28 08:13:12 51°15.661 2°53.679 -999 -999 -999 -999
2007-11-28 08:13:17 51°15.677 2°53.668 -999 -999 -999 -999
2007-11-28 08:13:21 51°15.69 2°53.66 -999 -999 -999 -999
2007-11-28 08:13:27 51°15.709 2°53.647 -999 -999 -999 -999
2007-11-28 08:13:32 51°15.725 2°53.635 -999 -999 -999 -999
2007-11-28 08:13:37 51°15.74 2°53.623 -999 -999 -999 -999
2007-11-28 08:13:41 51°15.753 2°53.613 -999 -999 -999 -999
2007-11-28 08:13:47 51°15.771 2°53.596 -999 -999 -999 -999
2007-11-28 08:13:52 51°15.786 2°53.582 -999 -999 -999 -999
2007-11-28 08:13:57 51°15.801 2°53.568 -999 -999 -999 -999
2007-11-28 08:14:01 51°15.813 2°53.556 -999 -999 -999 -999
2007-11-28 08:14:07 51°15.831 2°53.539 -999 -999 -999 -999
2007-11-28 08:14:12 51°15.846 2°53.524 -999 -999 -999 -999
2007-11-28 08:14:17 51°15.861 2°53.509 -999 -999 -999 -999
2007-11-28 08:14:21 51°15.873 2°53.498 -999 -999 -999 -999
2007-11-28 08:14:27 51°15.891 2°53.48 -999 -999 -999 -999
2007-11-28 08:14:32 51°15.907 2°53.467 -999 -999 -999 -999
2007-11-28 08:14:37 51°15.922 2°53.453 -999 -999 -999 -999
2007-11-28 08:14:41 51°15.934 2°53.442 -999 -999 -999 -999
2007-11-28 08:14:47 51°15.953 2°53.427 -999 -999 -999 -999
2007-11-28 08:14:52 51°15.968 2°53.415 -999 -999 -999 -999
2007-11-28 08:14:57 51°15.984 2°53.402 -999 -999 -999 -999
2007-11-28 08:15:01 51°15.996 2°53.392 -999 -999 -999 -999
2007-11-28 08:15:07 51°16.015 2°53.377 -999 -999 -999 -999
2007-11-28 08:15:12 51°16.031 2°53.364 -999 -999 -999 -999
2007-11-28 08:15:17 51°16.046 2°53.351 -999 -999 -999 -999
2007-11-28 08:15:21 51°16.059 2°53.341 -999 -999 -999 -999
2007-11-28 08:15:27 51°16.077 2°53.324 -999 -999 -999 -999
2007-11-28 08:15:32 51°16.092 2°53.311 -999 -999 -999 -999
2007-11-28 08:15:37 51°16.107 2°53.296 -999 -999 -999 -999
2007-11-28 08:15:41 51°16.12 2°53.285 -999 -999 -999 -999
2007-11-28 08:15:47 51°16.138 2°53.268 -999 -999 -999 -999
2007-11-28 08:15:52 51°16.153 2°53.255 -999 -999 -999 -999
2007-11-28 08:15:57 51°16.169 2°53.24 -999 -999 -999 -999
2007-11-28 08:16:01 51°16.181 2°53.23 -999 -999 -999 -999
2007-11-28 08:16:07 51°16.199 2°53.214 -999 -999 -999 -999
2007-11-28 08:16:12 51°16.215 2°53.201 -999 -999 -999 -999
2007-11-28 08:16:17 51°16.23 2°53.188 -999 -999 -999 -999
2007-11-28 08:16:21 51°16.243 2°53.178 -999 -999 -999 -999
2007-11-28 08:16:27 51°16.262 2°53.163 -999 -999 -999 -999
2007-11-28 08:16:32 51°16.277 2°53.15 -999 -999 -999 -999
2007-11-28 08:16:37 51°16.293 2°53.137 -999 -999 -999 -999
2007-11-28 08:16:41 51°16.305 2°53.127 -999 -999 -999 -999
2007-11-28 08:16:47 51°16.323 2°53.11 -999 -999 -999 -999
2007-11-28 08:16:52 51°16.338 2°53.097 -999 -999 -999 -999
2007-11-28 08:16:57 51°16.354 2°53.083 -999 -999 -999 -999
2007-11-28 08:17:01 51°16.366 2°53.072 -999 -999 -999 -999
2007-11-28 08:17:07 51°16.384 2°53.056 -999 -999 -999 -999
2007-11-28 08:17:12 51°16.4 2°53.042 -999 -999 -999 -999
2007-11-28 08:17:17 51°16.415 2°53.029 -999 -999 -999 -999
2007-11-28 08:17:21 51°16.427 2°53.017 -999 -999 -999 -999
2007-11-28 08:17:27 51°16.446 2°53.001 -999 -999 -999 -999
2007-11-28 08:17:32 51°16.461 2°52.987 -999 -999 -999 -999
2007-11-28 08:17:37 51°16.476 2°52.974 -999 -999 -999 -999
2007-11-28 08:17:41 51°16.489 2°52.963 -999 -999 -999 -999
2007-11-28 08:17:47 51°16.507 2°52.947 -999 -999 -999 -999
2007-11-28 08:17:52 51°16.522 2°52.933 -999 -999 -999 -999
2007-11-28 08:17:57 51°16.538 2°52.92 -999 -999 -999 -999
2007-11-28 08:18:01 51°16.55 2°52.909 -999 -999 -999 -999
2007-11-28 08:18:07 51°16.568 2°52.893 -999 -999 -999 -999
2007-11-28 08:18:12 51°16.584 2°52.88 -999 -999 -999 -999
2007-11-28 08:18:17 51°16.599 2°52.867 -999 -999 -999 -999
2007-11-28 08:18:21 51°16.612 2°52.857 -999 -999 -999 -999
2007-11-28 08:18:27 51°16.63 2°52.841 -999 -999 -999 -999
2007-11-28 08:18:32 51°16.646 2°52.829 -999 -999 -999 -999
2007-11-28 08:18:37 51°16.661 2°52.816 -999 -999 -999 -999
2007-11-28 08:18:41 51°16.674 2°52.806 -999 -999 -999 -999
2007-11-28 08:18:47 51°16.693 2°52.792 -999 -999 -999 -999
2007-11-28 08:18:52 51°16.709 2°52.78 -999 -999 -999 -999
2007-11-28 08:18:57 51°16.724 2°52.769 -999 -999 -999 -999
2007-11-28 08:19:01 51°16.737 2°52.76 -999 -999 -999 -999
2007-11-28 08:19:07 51°16.756 2°52.747 -999 -999 -999 -999
2007-11-28 08:19:12 51°16.772 2°52.737 -999 -999 -999 -999
2007-11-28 08:19:17 51°16.788 2°52.726 -999 -999 -999 -999
2007-11-28 08:19:21 51°16.8 2°52.718 -999 -999 -999 -999
2007-11-28 08:19:27 51°16.819 2°52.706 -999 -999 -999 -999
2007-11-28 08:19:32 51°16.835 2°52.696 -999 -999 -999 -999
2007-11-28 08:19:37 51°16.851 2°52.686 -999 -999 -999 -999
2007-11-28 08:19:41 51°16.863 2°52.678 -999 -999 -999 -999
2007-11-28 08:19:47 51°16.882 2°52.666 -999 -999 -999 -999
2007-11-28 08:19:52 51°16.898 2°52.655 -999 -999 -999 -999
2007-11-28 08:19:57 51°16.914 2°52.644 -999 -999 -999 -999
2007-11-28 08:20:01 51°16.926 2°52.635 -999 -999 -999 -999
2007-11-28 08:20:07 51°16.946 2°52.622 -999 -999 -999 -999
2007-11-28 08:20:12 51°16.961 2°52.611 -999 -999 -999 -999
2007-11-28 08:20:17 51°16.977 2°52.599 -999 -999 -999 -999
2007-11-28 08:20:21 51°16.989 2°52.589 -999 -999 -999 -999
2007-11-28 08:20:27 51°17.008 2°52.574 -999 -999 -999 -999
2007-11-28 08:20:32 51°17.023 2°52.561 -999 -999 -999 -999
2007-11-28 08:20:37 51°17.038 2°52.548 -999 -999 -999 -999
2007-11-28 08:20:41 51°17.05 2°52.537 -999 -999 -999 -999
2007-11-28 08:20:47 51°17.068 2°52.521 -999 -999 -999 -999
2007-11-28 08:20:52 51°17.083 2°52.507 -999 -999 -999 -999
2007-11-28 08:20:57 51°17.098 2°52.494 -999 -999 -999 -999
2007-11-28 08:21:01 51°17.11 2°52.483 -999 -999 -999 -999
2007-11-28 08:21:07 51°17.128 2°52.467 -999 -999 -999 -999
2007-11-28 08:21:12 51°17.144 2°52.454 -999 -999 -999 -999
2007-11-28 08:21:17 51°17.159 2°52.44 -999 -999 -999 -999
2007-11-28 08:21:21 51°17.171 2°52.429 -999 -999 -999 -999
2007-11-28 08:21:27 51°17.189 2°52.414 -999 -999 -999 -999
2007-11-28 08:21:32 51°17.205 2°52.4 -999 -999 -999 -999
2007-11-28 08:21:37 51°17.22 2°52.388 -999 -999 -999 -999
2007-11-28 08:21:41 51°17.232 2°52.377 -999 -999 -999 -999
2007-11-28 08:21:47 51°17.251 2°52.361 -999 -999 -999 -999
2007-11-28 08:21:52 51°17.266 2°52.348 -999 -999 -999 -999
2007-11-28 08:21:57 51°17.282 2°52.335 -999 -999 -999 -999
2007-11-28 08:22:01 51°17.294 2°52.325 -999 -999 -999 -999
2007-11-28 08:22:07 51°17.312 2°52.309 -999 -999 -999 -999
2007-11-28 08:22:12 51°17.328 2°52.296 -999 -999 -999 -999
2007-11-28 08:22:17 51°17.343 2°52.283 -999 -999 -999 -999
2007-11-28 08:22:21 51°17.356 2°52.273 -999 -999 -999 -999
2007-11-28 08:22:27 51°17.374 2°52.258 -999 -999 -999 -999
2007-11-28 08:22:32 51°17.39 2°52.246 -999 -999 -999 -999
2007-11-28 08:22:37 51°17.405 2°52.233 -999 -999 -999 -999
2007-11-28 08:22:41 51°17.417 2°52.223 -999 -999 -999 -999
2007-11-28 08:22:47 51°17.434 2°52.204 -999 -999 -999 -999
2007-11-28 08:22:52 51°17.448 2°52.187 -999 -999 -999 -999
2007-11-28 08:22:57 51°17.461 2°52.169 -999 -999 -999 -999
2007-11-28 08:23:01 51°17.47 2°52.153 -999 -999 -999 -999
2007-11-28 08:23:07 51°17.484 2°52.128 -999 -999 -999 -999
2007-11-28 08:23:12 51°17.496 2°52.107 -999 -999 -999 -999
2007-11-28 08:23:17 51°17.507 2°52.085 -999 -999 -999 -999
2007-11-28 08:23:21 51°17.515 2°52.067 -999 -999 -999 -999
2007-11-28 08:23:27 51°17.526 2°52.039 -999 -999 -999 -999
2007-11-28 08:23:32 51°17.535 2°52.014 -999 -999 -999 -999
2007-11-28 08:23:37 51°17.543 2°51.99 -999 -999 -999 -999
2007-11-28 08:23:41 51°17.549 2°51.969 -999 -999 -999 -999
2007-11-28 08:23:47 51°17.558 2°51.939 -999 -999 -999 -999
2007-11-28 08:23:52 51°17.564 2°51.912 -999 -999 -999 -999
2007-11-28 08:23:57 51°17.571 2°51.886 -999 -999 -999 -999
2007-11-28 08:24:01 51°17.576 2°51.865 -999 -999 -999 -999
2007-11-28 08:24:07 51°17.583 2°51.833 -999 -999 -999 -999
2007-11-28 08:24:12 51°17.59 2°51.807 -999 -999 -999 -999
2007-11-28 08:24:17 51°17.596 2°51.78 -999 -999 -999 -999
2007-11-28 08:24:21 51°17.601 2°51.759 -999 -999 -999 -999
2007-11-28 08:24:27 51°17.608 2°51.727 -999 -999 -999 -999
2007-11-28 08:24:32 51°17.614 2°51.7 -999 -999 -999 -999
2007-11-28 08:24:37 51°17.621 2°51.674 -999 -999 -999 -999
2007-11-28 08:24:41 51°17.625 2°51.652 -999 -999 -999 -999
2007-11-28 08:24:47 51°17.633 2°51.621 -999 -999 -999 -999
2007-11-28 08:24:52 51°17.64 2°51.595 -999 -999 -999 -999
2007-11-28 08:24:57 51°17.647 2°51.569 -999 -999 -999 -999
2007-11-28 08:25:01 51°17.653 2°51.548 -999 -999 -999 -999
2007-11-28 08:25:07 51°17.662 2°51.518 -999 -999 -999 -999
2007-11-28 08:25:12 51°17.669 2°51.492 -999 -999 -999 -999
2007-11-28 08:25:17 51°17.677 2°51.467 -999 -999 -999 -999
2007-11-28 08:25:21 51°17.684 2°51.447 -999 -999 -999 -999
2007-11-28 08:25:27 51°17.693 2°51.416 -999 -999 -999 -999
2007-11-28 08:25:32 51°17.701 2°51.391 -999 -999 -999 -999
2007-11-28 08:25:37 51°17.709 2°51.365 -999 -999 -999 -999
2007-11-28 08:25:41 51°17.715 2°51.345 -999 -999 -999 -999
2007-11-28 08:25:47 51°17.723 2°51.313 -999 -999 -999 -999
2007-11-28 08:25:52 51°17.73 2°51.287 -999 -999 -999 -999
2007-11-28 08:25:57 51°17.737 2°51.26 -999 -999 -999 -999
2007-11-28 08:26:01 51°17.742 2°51.239 -999 -999 -999 -999
2007-11-28 08:26:07 51°17.75 2°51.207 -999 -999 -999 -999
2007-11-28 08:26:12 51°17.756 2°51.18 -999 -999 -999 -999
2007-11-28 08:26:17 51°17.763 2°51.153 -999 -999 -999 -999
2007-11-28 08:26:21 51°17.768 2°51.132 -999 -999 -999 -999
2007-11-28 08:26:27 51°17.777 2°51.1 -999 -999 -999 -999
2007-11-28 08:26:32 51°17.784 2°51.074 -999 -999 -999 -999
2007-11-28 08:26:37 51°17.791 2°51.047 -999 -999 -999 -999
2007-11-28 08:26:41 51°17.797 2°51.026 -999 -999 -999 -999
2007-11-28 08:26:47 51°17.806 2°50.995 -999 -999 -999 -999
2007-11-28 08:26:52 51°17.814 2°50.968 -999 -999 -999 -999
2007-11-28 08:26:57 51°17.821 2°50.942 -999 -999 -999 -999
2007-11-28 08:27:01 51°17.827 2°50.921 -999 -999 -999 -999
2007-11-28 08:27:07 51°17.836 2°50.889 -999 -999 -999 -999
2007-11-28 08:27:12 51°17.844 2°50.863 -999 -999 -999 -999
2007-11-28 08:27:17 51°17.851 2°50.837 -999 -999 -999 -999
2007-11-28 08:27:21 51°17.857 2°50.816 -999 -999 -999 -999
2007-11-28 08:27:27 51°17.866 2°50.784 -999 -999 -999 -999
2007-11-28 08:27:32 51°17.874 2°50.758 -999 -999 -999 -999
2007-11-28 08:27:37 51°17.882 2°50.731 -999 -999 -999 -999
2007-11-28 08:27:41 51°17.888 2°50.711 -999 -999 -999 -999
2007-11-28 08:27:47 51°17.897 2°50.679 -999 -999 -999 -999
2007-11-28 08:27:52 51°17.905 2°50.653 -999 -999 -999 -999
2007-11-28 08:27:57 51°17.913 2°50.627 -999 -999 -999 -999
2007-11-28 08:28:01 51°17.92 2°50.607 -999 -999 -999 -999
2007-11-28 08:28:07 51°17.93 2°50.576 -999 -999 -999 -999
2007-11-28 08:28:12 51°17.938 2°50.549 -999 -999 -999 -999
2007-11-28 08:28:17 51°17.946 2°50.523 -999 -999 -999 -999
2007-11-28 08:28:21 51°17.952 2°50.502 -999 -999 -999 -999
2007-11-28 08:28:27 51°17.962 2°50.472 -999 -999 -999 -999
2007-11-28 08:28:32 51°17.971 2°50.446 -999 -999 -999 -999
2007-11-28 08:28:37 51°17.979 2°50.42 -999 -999 -999 -999
2007-11-28 08:28:41 51°17.985 2°50.399 -999 -999 -999 -999
2007-11-28 08:28:47 51°17.995 2°50.368 -999 -999 -999 -999
2007-11-28 08:28:52 51°18.003 2°50.342 -999 -999 -999 -999
2007-11-28 08:28:57 51°18.011 2°50.316 -999 -999 -999 -999
2007-11-28 08:29:02 51°18.018 2°50.289 -999 -999 -999 -999
2007-11-28 08:29:07 51°18.026 2°50.264 -999 -999 -999 -999
2007-11-28 08:29:12 51°18.034 2°50.237 -999 -999 -999 -999
2007-11-28 08:29:17 51°18.042 2°50.211 -999 -999 -999 -999
2007-11-28 08:29:21 51°18.048 2°50.191 -999 -999 -999 -999
2007-11-28 08:29:27 51°18.057 2°50.159 -999 -999 -999 -999
2007-11-28 08:29:32 51°18.065 2°50.133 -999 -999 -999 -999
2007-11-28 08:29:37 51°18.073 2°50.108 -999 -999 -999 -999
2007-11-28 08:29:42 51°18.081 2°50.082 -999 -999 -999 -999
2007-11-28 08:29:47 51°18.089 2°50.055 -999 -999 -999 -999
2007-11-28 08:29:52 51°18.097 2°50.03 -999 -999 -999 -999
2007-11-28 08:29:57 51°18.105 2°50.004 -999 -999 -999 -999
2007-11-28 08:30:02 51°18.113 2°49.978 -999 -999 -999 -999
2007-11-28 08:30:07 51°18.121 2°49.952 -999 -999 -999 -999
2007-11-28 08:30:12 51°18.129 2°49.926 -999 -999 -999 -999
2007-11-28 08:30:17 51°18.137 2°49.9 -999 -999 -999 -999
2007-11-28 08:30:21 51°18.144 2°49.88 -999 -999 -999 -999
2007-11-28 08:30:27 51°18.153 2°49.848 -999 -999 -999 -999
2007-11-28 08:30:32 51°18.162 2°49.822 -999 -999 -999 -999
2007-11-28 08:30:37 51°18.169 2°49.796 -999 -999 -999 -999
2007-11-28 08:30:41 51°18.176 2°49.776 -999 -999 -999 -999
2007-11-28 08:30:47 51°18.185 2°49.744 -999 -999 -999 -999
2007-11-28 08:30:52 51°18.193 2°49.718 -999 -999 -999 -999
2007-11-28 08:30:57 51°18.2 2°49.691 -999 -999 -999 -999
2007-11-28 08:31:01 51°18.205 2°49.67 -999 -999 -999 -999
2007-11-28 08:31:07 51°18.213 2°49.637 -999 -999 -999 -999
2007-11-28 08:31:12 51°18.219 2°49.61 -999 -999 -999 -999
2007-11-28 08:31:17 51°18.225 2°49.582 -999 -999 -999 -999
2007-11-28 08:31:22 51°18.231 2°49.555 -999 -999 -999 -999
2007-11-28 08:31:27 51°18.237 2°49.527 -999 -999 -999 -999
2007-11-28 08:31:32 51°18.243 2°49.5 -999 -999 -999 -999
2007-11-28 08:31:37 51°18.249 2°49.472 -999 -999 -999 -999
2007-11-28 08:31:42 51°18.255 2°49.445 -999 -999 -999 -999
2007-11-28 08:31:47 51°18.261 2°49.417 -999 -999 -999 -999
2007-11-28 08:31:52 51°18.267 2°49.39 -999 -999 -999 -999
2007-11-28 08:31:57 51°18.273 2°49.362 -999 -999 -999 -999
2007-11-28 08:32:01 51°18.278 2°49.34 -999 -999 -999 -999
2007-11-28 08:32:07 51°18.285 2°49.307 -999 -999 -999 -999
2007-11-28 08:32:12 51°18.291 2°49.279 -999 -999 -999 -999
2007-11-28 08:32:17 51°18.297 2°49.251 -999 -999 -999 -999
2007-11-28 08:32:22 51°18.303 2°49.224 -999 -999 -999 -999
2007-11-28 08:32:27 51°18.309 2°49.196 -999 -999 -999 -999
2007-11-28 08:32:32 51°18.315 2°49.168 -999 -999 -999 -999
2007-11-28 08:32:37 51°18.321 2°49.141 -999 -999 -999 -999
2007-11-28 08:32:41 51°18.325 2°49.119 -999 -999 -999 -999
2007-11-28 08:32:47 51°18.333 2°49.086 -999 -999 -999 -999
2007-11-28 08:32:52 51°18.339 2°49.058 -999 -999 -999 -999
2007-11-28 08:32:57 51°18.345 2°49.031 -999 -999 -999 -999
2007-11-28 08:33:01 51°18.349 2°49.009 -999 -999 -999 -999
2007-11-28 08:33:07 51°18.356 2°48.975 -999 -999 -999 -999
2007-11-28 08:33:12 51°18.362 2°48.947 -999 -999 -999 -999
2007-11-28 08:33:17 51°18.368 2°48.919 -999 -999 -999 -999
2007-11-28 08:33:21 51°18.373 2°48.897 -999 -999 -999 -999
2007-11-28 08:33:27 51°18.38 2°48.863 -999 -999 -999 -999
2007-11-28 08:33:32 51°18.385 2°48.835 -999 -999 -999 -999
2007-11-28 08:33:37 51°18.392 2°48.807 -999 -999 -999 -999
2007-11-28 08:33:42 51°18.398 2°48.779 -999 -999 -999 -999
2007-11-28 08:33:47 51°18.404 2°48.751 -999 -999 -999 -999
2007-11-28 08:33:52 51°18.41 2°48.723 -999 -999 -999 -999
2007-11-28 08:33:57 51°18.417 2°48.696 -999 -999 -999 -999
2007-11-28 08:34:01 51°18.422 2°48.674 -999 -999 -999 -999
2007-11-28 08:34:07 51°18.43 2°48.64 -999 -999 -999 -999
2007-11-28 08:34:12 51°18.437 2°48.612 -999 -999 -999 -999
2007-11-28 08:34:17 51°18.443 2°48.584 -999 -999 -999 -999
2007-11-28 08:34:22 51°18.45 2°48.556 -999 -999 -999 -999
2007-11-28 08:34:27 51°18.456 2°48.528 -999 -999 -999 -999
2007-11-28 08:34:32 51°18.463 2°48.501 -999 -999 -999 -999
2007-11-28 08:34:37 51°18.468 2°48.473 -999 -999 -999 -999
2007-11-28 08:34:41 51°18.473 2°48.451 -999 -999 -999 -999
2007-11-28 08:34:47 51°18.481 2°48.417 -999 -999 -999 -999
2007-11-28 08:34:52 51°18.487 2°48.388 -999 -999 -999 -999
2007-11-28 08:34:57 51°18.493 2°48.36 -999 -999 -999 -999
2007-11-28 08:35:01 51°18.498 2°48.337 -999 -999 -999 -999
2007-11-28 08:35:07 51°18.506 2°48.303 -999 -999 -999 -999
2007-11-28 08:35:12 51°18.512 2°48.276 -999 -999 -999 -999
2007-11-28 08:35:17 51°18.519 2°48.247 -999 -999 -999 -999
2007-11-28 08:35:21 51°18.524 2°48.225 -999 -999 -999 -999
2007-11-28 08:35:27 51°18.533 2°48.192 -999 -999 -999 -999
2007-11-28 08:35:32 51°18.539 2°48.164 -999 -999 -999 -999
2007-11-28 08:35:37 51°18.546 2°48.136 -999 -999 -999 -999
2007-11-28 08:35:41 51°18.551 2°48.113 -999 -999 -999 -999
2007-11-28 08:35:47 51°18.558 2°48.079 -999 -999 -999 -999
2007-11-28 08:35:52 51°18.564 2°48.051 -999 -999 -999 -999
2007-11-28 08:35:57 51°18.57 2°48.023 -999 -999 -999 -999
2007-11-28 08:36:02 51°18.576 2°47.994 -999 -999 -999 -999
2007-11-28 08:36:07 51°18.581 2°47.966 -999 -999 -999 -999
2007-11-28 08:36:12 51°18.587 2°47.938 -999 -999 -999 -999
2007-11-28 08:36:17 51°18.593 2°47.91 -999 -999 -999 -999
2007-11-28 08:36:21 51°18.597 2°47.887 -999 -999 -999 -999
2007-11-28 08:36:27 51°18.604 2°47.853 -999 -999 -999 -999
2007-11-28 08:36:32 51°18.609 2°47.825 -999 -999 -999 -999
2007-11-28 08:36:37 51°18.615 2°47.797 -999 -999 -999 -999
2007-11-28 08:36:42 51°18.62 2°47.769 -999 -999 -999 -999
2007-11-28 08:36:47 51°18.626 2°47.741 -999 -999 -999 -999
2007-11-28 08:36:52 51°18.631 2°47.712 -999 -999 -999 -999
2007-11-28 08:36:57 51°18.637 2°47.684 -999 -999 -999 -999
2007-11-28 08:37:02 51°18.643 2°47.657 -999 -999 -999 -999
2007-11-28 08:37:07 51°18.648 2°47.629 -999 -999 -999 -999
2007-11-28 08:37:12 51°18.654 2°47.601 -999 -999 -999 -999
2007-11-28 08:37:17 51°18.659 2°47.573 -999 -999 -999 -999
2007-11-28 08:37:21 51°18.664 2°47.551 -999 -999 -999 -999
2007-11-28 08:37:27 51°18.67 2°47.517 -999 -999 -999 -999
2007-11-28 08:37:32 51°18.676 2°47.489 -999 -999 -999 -999
2007-11-28 08:37:37 51°18.681 2°47.461 -999 -999 -999 -999
2007-11-28 08:37:41 51°18.686 2°47.439 -999 -999 -999 -999
2007-11-28 08:37:47 51°18.693 2°47.405 -999 -999 -999 -999
2007-11-28 08:37:52 51°18.698 2°47.377 -999 -999 -999 -999
2007-11-28 08:37:57 51°18.704 2°47.349 -999 -999 -999 -999
2007-11-28 08:38:02 51°18.709 2°47.321 -999 -999 -999 -999
2007-11-28 08:38:07 51°18.714 2°47.293 -999 -999 -999 -999
2007-11-28 08:38:12 51°18.719 2°47.265 -999 -999 -999 -999
2007-11-28 08:38:17 51°18.725 2°47.236 -999 -999 -999 -999
2007-11-28 08:38:21 51°18.729 2°47.214 -999 -999 -999 -999
2007-11-28 08:38:27 51°18.735 2°47.18 -999 -999 -999 -999
2007-11-28 08:38:32 51°18.741 2°47.152 -999 -999 -999 -999
2007-11-28 08:38:37 51°18.746 2°47.123 -999 -999 -999 -999
2007-11-28 08:38:42 51°18.752 2°47.095 -999 -999 -999 -999
2007-11-28 08:38:47 51°18.757 2°47.067 -999 -999 -999 -999
2007-11-28 08:38:52 51°18.762 2°47.038 -999 -999 -999 -999
2007-11-28 08:38:57 51°18.768 2°47.01 -999 -999 -999 -999
2007-11-28 08:39:02 51°18.773 2°46.981 -999 -999 -999 -999
2007-11-28 08:39:07 51°18.778 2°46.953 -999 -999 -999 -999
2007-11-28 08:39:12 51°18.784 2°46.925 -999 -999 -999 -999
2007-11-28 08:39:17 51°18.789 2°46.896 -999 -999 -999 -999
2007-11-28 08:39:21 51°18.793 2°46.874 -999 -999 -999 -999
2007-11-28 08:39:27 51°18.799 2°46.84 -999 -999 -999 -999
2007-11-28 08:39:32 51°18.805 2°46.811 -999 -999 -999 -999
2007-11-28 08:39:37 51°18.809 2°46.782 -999 -999 -999 -999
2007-11-28 08:39:41 51°18.814 2°46.76 -999 -999 -999 -999
2007-11-28 08:39:47 51°18.82 2°46.726 -999 -999 -999 -999
2007-11-28 08:39:52 51°18.825 2°46.697 -999 -999 -999 -999
2007-11-28 08:39:57 51°18.83 2°46.669 -999 -999 -999 -999
2007-11-28 08:40:01 51°18.834 2°46.646 -999 -999 -999 -999
2007-11-28 08:40:07 51°18.841 2°46.612 -999 -999 -999 -999
2007-11-28 08:40:12 51°18.847 2°46.584 -999 -999 -999 -999
2007-11-28 08:40:17 51°18.852 2°46.555 -999 -999 -999 -999
2007-11-28 08:40:21 51°18.857 2°46.533 -999 -999 -999 -999
2007-11-28 08:40:27 51°18.863 2°46.499 -999 -999 -999 -999
2007-11-28 08:40:32 51°18.869 2°46.47 -999 -999 -999 -999
2007-11-28 08:40:37 51°18.875 2°46.442 -999 -999 -999 -999
2007-11-28 08:40:42 51°18.88 2°46.413 -999 -999 -999 -999
2007-11-28 08:40:47 51°18.887 2°46.385 -999 -999 -999 -999
2007-11-28 08:40:52 51°18.892 2°46.357 -999 -999 -999 -999
2007-11-28 08:40:57 51°18.898 2°46.329 -999 -999 -999 -999
2007-11-28 08:41:01 51°18.902 2°46.306 -999 -999 -999 -999
2007-11-28 08:41:07 51°18.908 2°46.272 -999 -999 -999 -999
2007-11-28 08:41:12 51°18.914 2°46.244 -999 -999 -999 -999
2007-11-28 08:41:17 51°18.919 2°46.215 -999 -999 -999 -999
2007-11-28 08:41:22 51°18.925 2°46.187 -999 -999 -999 -999
2007-11-28 08:41:27 51°18.931 2°46.159 -999 -999 -999 -999
2007-11-28 08:41:32 51°18.937 2°46.131 -999 -999 -999 -999
2007-11-28 08:41:37 51°18.942 2°46.103 -999 -999 -999 -999
2007-11-28 08:41:42 51°18.948 2°46.074 -999 -999 -999 -999
2007-11-28 08:41:47 51°18.954 2°46.046 -999 -999 -999 -999
2007-11-28 08:41:52 51°18.96 2°46.018 -999 -999 -999 -999
2007-11-28 08:41:57 51°18.966 2°45.99 -999 -999 -999 -999
2007-11-28 08:42:01 51°18.97 2°45.968 -999 -999 -999 -999
2007-11-28 08:42:07 51°18.977 2°45.934 -999 -999 -999 -999
2007-11-28 08:42:12 51°18.983 2°45.906 -999 -999 -999 -999
2007-11-28 08:42:17 51°18.989 2°45.878 -999 -999 -999 -999
2007-11-28 08:42:21 51°18.993 2°45.856 -999 -999 -999 -999
2007-11-28 08:42:27 51°19 2°45.822 -999 -999 -999 -999
2007-11-28 08:42:32 51°19.005 2°45.794 -999 -999 -999 -999
2007-11-28 08:42:37 51°19.011 2°45.766 -999 -999 -999 -999
2007-11-28 08:42:41 51°19.015 2°45.743 -999 -999 -999 -999
2007-11-28 08:42:47 51°19.022 2°45.71 -999 -999 -999 -999
2007-11-28 08:42:52 51°19.027 2°45.681 -999 -999 -999 -999
2007-11-28 08:42:57 51°19.032 2°45.653 -999 -999 -999 -999
2007-11-28 08:43:02 51°19.038 2°45.625 -999 -999 -999 -999
2007-11-28 08:43:07 51°19.044 2°45.597 -999 -999 -999 -999
2007-11-28 08:43:12 51°19.05 2°45.569 -999 -999 -999 -999
2007-11-28 08:43:17 51°19.055 2°45.541 -999 -999 -999 -999
2007-11-28 08:43:22 51°19.061 2°45.513 -999 -999 -999 -999
2007-11-28 08:43:27 51°19.067 2°45.485 -999 -999 -999 -999
2007-11-28 08:43:32 51°19.073 2°45.457 -999 -999 -999 -999
2007-11-28 08:43:37 51°19.078 2°45.429 -999 -999 -999 -999
2007-11-28 08:43:42 51°19.084 2°45.401 -999 -999 -999 -999
2007-11-28 08:43:47 51°19.089 2°45.372 -999 -999 -999 -999
2007-11-28 08:43:52 51°19.095 2°45.344 -999 -999 -999 -999
2007-11-28 08:43:57 51°19.1 2°45.316 -999 -999 -999 -999
2007-11-28 08:44:01 51°19.105 2°45.294 -999 -999 -999 -999
2007-11-28 08:44:07 51°19.111 2°45.26 -999 -999 -999 -999
2007-11-28 08:44:12 51°19.117 2°45.231 -999 -999 -999 -999
2007-11-28 08:44:17 51°19.123 2°45.203 -999 -999 -999 -999
2007-11-28 08:44:21 51°19.127 2°45.181 -999 -999 -999 -999
2007-11-28 08:44:27 51°19.135 2°45.147 -999 -999 -999 -999
2007-11-28 08:44:32 51°19.141 2°45.119 -999 -999 -999 -999
2007-11-28 08:44:37 51°19.147 2°45.091 -999 -999 -999 -999
2007-11-28 08:44:41 51°19.152 2°45.069 -999 -999 -999 -999
2007-11-28 08:44:47 51°19.159 2°45.035 -999 -999 -999 -999
2007-11-28 08:44:52 51°19.165 2°45.007 -999 -999 -999 -999
2007-11-28 08:44:57 51°19.17 2°44.979 -999 -999 -999 -999
2007-11-28 08:45:02 51°19.176 2°44.95 -999 -999 -999 -999
2007-11-28 08:45:07 51°19.182 2°44.922 -999 -999 -999 -999
2007-11-28 08:45:12 51°19.187 2°44.893 -999 -999 -999 -999
2007-11-28 08:45:17 51°19.193 2°44.865 -999 -999 -999 -999
2007-11-28 08:45:22 51°19.198 2°44.836 -999 -999 -999 -999
2007-11-28 08:45:27 51°19.204 2°44.807 -999 -999 -999 -999
2007-11-28 08:45:32 51°19.21 2°44.778 -999 -999 -999 -999
2007-11-28 08:45:37 51°19.216 2°44.749 -999 -999 -999 -999
2007-11-28 08:45:41 51°19.22 2°44.726 -999 -999 -999 -999
2007-11-28 08:45:47 51°19.228 2°44.691 -999 -999 -999 -999
2007-11-28 08:45:52 51°19.233 2°44.662 -999 -999 -999 -999
2007-11-28 08:45:57 51°19.239 2°44.633 -999 -999 -999 -999
2007-11-28 08:46:02 51°19.246 2°44.605 -999 -999 -999 -999
2007-11-28 08:46:07 51°19.251 2°44.576 -999 -999 -999 -999
2007-11-28 08:46:12 51°19.257 2°44.547 -999 -999 -999 -999
2007-11-28 08:46:17 51°19.263 2°44.519 -999 -999 -999 -999
2007-11-28 08:46:21 51°19.269 2°44.496 -999 -999 -999 -999
2007-11-28 08:46:27 51°19.276 2°44.462 -999 -999 -999 -999
2007-11-28 08:46:32 51°19.282 2°44.434 -999 -999 -999 -999
2007-11-28 08:46:37 51°19.287 2°44.406 -999 -999 -999 -999
2007-11-28 08:46:41 51°19.292 2°44.383 -999 -999 -999 -999
2007-11-28 08:46:47 51°19.299 2°44.349 -999 -999 -999 -999
2007-11-28 08:46:52 51°19.305 2°44.32 -999 -999 -999 -999
2007-11-28 08:46:57 51°19.31 2°44.292 -999 -999 -999 -999
2007-11-28 08:47:01 51°19.314 2°44.269 -999 -999 -999 -999
2007-11-28 08:47:07 51°19.321 2°44.235 -999 -999 -999 -999
2007-11-28 08:47:12 51°19.327 2°44.207 -999 -999 -999 -999
2007-11-28 08:47:17 51°19.332 2°44.178 -999 -999 -999 -999
2007-11-28 08:47:22 51°19.338 2°44.15 -999 -999 -999 -999
2007-11-28 08:47:27 51°19.344 2°44.121 -999 -999 -999 -999
2007-11-28 08:47:32 51°19.349 2°44.093 -999 -999 -999 -999
2007-11-28 08:47:37 51°19.355 2°44.064 -999 -999 -999 -999
2007-11-28 08:47:42 51°19.36 2°44.036 -999 -999 -999 -999
2007-11-28 08:47:47 51°19.366 2°44.008 -999 -999 -999 -999
2007-11-28 08:47:52 51°19.371 2°43.98 -999 -999 -999 -999
2007-11-28 08:47:57 51°19.377 2°43.951 -999 -999 -999 -999
2007-11-28 08:48:02 51°19.382 2°43.923 -999 -999 -999 -999
2007-11-28 08:48:07 51°19.388 2°43.895 -999 -999 -999 -999
2007-11-28 08:48:12 51°19.393 2°43.867 -999 -999 -999 -999
2007-11-28 08:48:17 51°19.399 2°43.838 -999 -999 -999 -999
2007-11-28 08:48:21 51°19.403 2°43.816 -999 -999 -999 -999
2007-11-28 08:48:27 51°19.41 2°43.782 -999 -999 -999 -999
2007-11-28 08:48:32 51°19.416 2°43.753 -999 -999 -999 -999
2007-11-28 08:48:37 51°19.421 2°43.725 -999 -999 -999 -999
2007-11-28 08:48:41 51°19.426 2°43.703 -999 -999 -999 -999
2007-11-28 08:48:47 51°19.433 2°43.668 -999 -999 -999 -999
2007-11-28 08:48:52 51°19.438 2°43.64 -999 -999 -999 -999
2007-11-28 08:48:57 51°19.444 2°43.611 -999 -999 -999 -999
2007-11-28 08:49:01 51°19.449 2°43.589 -999 -999 -999 -999
2007-11-28 08:49:07 51°19.455 2°43.555 -999 -999 -999 -999
2007-11-28 08:49:12 51°19.461 2°43.527 -999 -999 -999 -999
2007-11-28 08:49:17 51°19.467 2°43.498 -999 -999 -999 -999
2007-11-28 08:49:22 51°19.472 2°43.47 -999 -999 -999 -999
2007-11-28 08:49:27 51°19.478 2°43.442 -999 -999 -999 -999
2007-11-28 08:49:32 51°19.484 2°43.413 -999 -999 -999 -999
2007-11-28 08:49:37 51°19.49 2°43.386 -999 -999 -999 -999
2007-11-28 08:49:42 51°19.496 2°43.357 -999 -999 -999 -999
2007-11-28 08:49:47 51°19.502 2°43.329 -999 -999 -999 -999
2007-11-28 08:49:52 51°19.508 2°43.301 -999 -999 -999 -999
2007-11-28 08:49:57 51°19.514 2°43.273 -999 -999 -999 -999
2007-11-28 08:50:01 51°19.518 2°43.25 -999 -999 -999 -999
2007-11-28 08:50:07 51°19.526 2°43.217 -999 -999 -999 -999
2007-11-28 08:50:12 51°19.531 2°43.189 -999 -999 -999 -999
2007-11-28 08:50:17 51°19.537 2°43.161 -999 -999 -999 -999
2007-11-28 08:50:22 51°19.542 2°43.132 -999 -999 -999 -999
2007-11-28 08:50:27 51°19.548 2°43.104 -999 -999 -999 -999
2007-11-28 08:50:32 51°19.554 2°43.076 -999 -999 -999 -999
2007-11-28 08:50:37 51°19.56 2°43.048 -999 -999 -999 -999
2007-11-28 08:50:42 51°19.566 2°43.02 -999 -999 -999 -999
2007-11-28 08:50:47 51°19.572 2°42.992 -999 -999 -999 -999
2007-11-28 08:50:52 51°19.578 2°42.964 -999 -999 -999 -999
2007-11-28 08:50:57 51°19.583 2°42.936 -999 -999 -999 -999
2007-11-28 08:51:01 51°19.588 2°42.914 -999 -999 -999 -999
2007-11-28 08:51:07 51°19.595 2°42.88 -999 -999 -999 -999
2007-11-28 08:51:12 51°19.601 2°42.852 -999 -999 -999 -999
2007-11-28 08:51:17 51°19.607 2°42.824 -999 -999 -999 -999
2007-11-28 08:51:21 51°19.612 2°42.802 -999 -999 -999 -999
2007-11-28 08:51:27 51°19.619 2°42.768 -999 -999 -999 -999
2007-11-28 08:51:32 51°19.625 2°42.74 -999 -999 -999 -999
2007-11-28 08:51:37 51°19.63 2°42.712 -999 -999 -999 -999
2007-11-28 08:51:42 51°19.636 2°42.684 -999 -999 -999 -999
2007-11-28 08:51:47 51°19.642 2°42.656 -999 -999 -999 -999
2007-11-28 08:51:52 51°19.648 2°42.628 -999 -999 -999 -999
2007-11-28 08:51:57 51°19.654 2°42.6 -999 -999 -999 -999
2007-11-28 08:52:01 51°19.658 2°42.578 -999 -999 -999 -999
2007-11-28 08:52:07 51°19.665 2°42.544 -999 -999 -999 -999
2007-11-28 08:52:12 51°19.671 2°42.516 -999 -999 -999 -999
2007-11-28 08:52:17 51°19.676 2°42.488 -999 -999 -999 -999
2007-11-28 08:52:22 51°19.681 2°42.46 -999 -999 -999 -999
2007-11-28 08:52:27 51°19.687 2°42.432 -999 -999 -999 -999
2007-11-28 08:52:32 51°19.692 2°42.404 -999 -999 -999 -999
2007-11-28 08:52:37 51°19.698 2°42.376 -999 -999 -999 -999
2007-11-28 08:52:41 51°19.702 2°42.353 -999 -999 -999 -999
2007-11-28 08:52:47 51°19.709 2°42.319 -999 -999 -999 -999
2007-11-28 08:52:52 51°19.714 2°42.291 -999 -999 -999 -999
2007-11-28 08:52:57 51°19.72 2°42.263 -999 -999 -999 -999
2007-11-28 08:53:02 51°19.725 2°42.235 -999 -999 -999 -999
2007-11-28 08:53:07 51°19.731 2°42.207 -999 -999 -999 -999
2007-11-28 08:53:12 51°19.736 2°42.179 -999 -999 -999 -999
2007-11-28 08:53:17 51°19.742 2°42.151 -999 -999 -999 -999
2007-11-28 08:53:21 51°19.746 2°42.128 -999 -999 -999 -999
2007-11-28 08:53:27 51°19.753 2°42.095 -999 -999 -999 -999
2007-11-28 08:53:32 51°19.758 2°42.066 -999 -999 -999 -999
2007-11-28 08:53:37 51°19.764 2°42.038 -999 -999 -999 -999
2007-11-28 08:53:41 51°19.768 2°42.015 -999 -999 -999 -999
2007-11-28 08:53:47 51°19.775 2°41.981 -999 -999 -999 -999
2007-11-28 08:53:52 51°19.781 2°41.953 -999 -999 -999 -999
2007-11-28 08:53:57 51°19.786 2°41.925 -999 -999 -999 -999
2007-11-28 08:54:01 51°19.791 2°41.902 -999 -999 -999 -999
2007-11-28 08:54:07 51°19.797 2°41.868 -999 -999 -999 -999
2007-11-28 08:54:12 51°19.803 2°41.84 -999 -999 -999 -999
2007-11-28 08:54:17 51°19.808 2°41.811 -999 -999 -999 -999
2007-11-28 08:54:21 51°19.813 2°41.789 -999 -999 -999 -999
2007-11-28 08:54:27 51°19.82 2°41.755 -999 -999 -999 -999
2007-11-28 08:54:32 51°19.825 2°41.726 -999 -999 -999 -999
2007-11-28 08:54:37 51°19.83 2°41.697 -999 -999 -999 -999
2007-11-28 08:54:42 51°19.836 2°41.669 -999 -999 -999 -999
2007-11-28 08:54:47 51°19.842 2°41.64 -999 -999 -999 -999
2007-11-28 08:54:52 51°19.848 2°41.612 -999 -999 -999 -999
2007-11-28 08:54:57 51°19.853 2°41.583 -999 -999 -999 -999
2007-11-28 08:55:01 51°19.858 2°41.561 -999 -999 -999 -999
2007-11-28 08:55:07 51°19.864 2°41.526 -999 -999 -999 -999
2007-11-28 08:55:12 51°19.87 2°41.498 -999 -999 -999 -999
2007-11-28 08:55:17 51°19.875 2°41.469 -999 -999 -999 -999
2007-11-28 08:55:22 51°19.882 2°41.441 -999 -999 -999 -999
2007-11-28 08:55:27 51°19.887 2°41.412 -999 -999 -999 -999
2007-11-28 08:55:32 51°19.893 2°41.383 -999 -999 -999 -999
2007-11-28 08:55:37 51°19.898 2°41.355 -999 -999 -999 -999
2007-11-28 08:55:41 51°19.903 2°41.332 -999 -999 -999 -999
2007-11-28 08:55:47 51°19.91 2°41.298 -999 -999 -999 -999
2007-11-28 08:55:52 51°19.916 2°41.269 -999 -999 -999 -999
2007-11-28 08:55:57 51°19.922 2°41.241 -999 -999 -999 -999
2007-11-28 08:56:01 51°19.927 2°41.218 -999 -999 -999 -999
2007-11-28 08:56:07 51°19.933 2°41.183 -999 -999 -999 -999
2007-11-28 08:56:12 51°19.939 2°41.155 -999 -999 -999 -999
2007-11-28 08:56:17 51°19.945 2°41.126 -999 -999 -999 -999
2007-11-28 08:56:21 51°19.949 2°41.103 -999 -999 -999 -999
2007-11-28 08:56:27 51°19.955 2°41.068 -999 -999 -999 -999
2007-11-28 08:56:32 51°19.96 2°41.039 -999 -999 -999 -999
2007-11-28 08:56:37 51°19.965 2°41.01 -999 -999 -999 -999
2007-11-28 08:56:41 51°19.969 2°40.987 -999 -999 -999 -999
2007-11-28 08:56:47 51°19.975 2°40.952 -999 -999 -999 -999
2007-11-28 08:56:52 51°19.979 2°40.922 -999 -999 -999 -999
2007-11-28 08:56:57 51°19.984 2°40.893 -999 -999 -999 -999
2007-11-28 08:57:01 51°19.988 2°40.869 -999 -999 -999 -999
2007-11-28 08:57:07 51°19.993 2°40.834 -999 -999 -999 -999
2007-11-28 08:57:12 51°19.998 2°40.804 -999 -999 -999 -999
2007-11-28 08:57:17 51°20.002 2°40.775 -999 -999 -999 -999
2007-11-28 08:57:22 51°20.007 2°40.746 -999 -999 -999 -999
2007-11-28 08:57:27 51°20.012 2°40.716 -999 -999 -999 -999
2007-11-28 08:57:32 51°20.017 2°40.687 -999 -999 -999 -999
2007-11-28 08:57:37 51°20.021 2°40.657 -999 -999 -999 -999
2007-11-28 08:57:41 51°20.025 2°40.634 -999 -999 -999 -999
2007-11-28 08:57:47 51°20.03 2°40.598 -999 -999 -999 -999
2007-11-28 08:57:52 51°20.035 2°40.569 -999 -999 -999 -999
2007-11-28 08:57:57 51°20.039 2°40.539 -999 -999 -999 -999
2007-11-28 08:58:01 51°20.043 2°40.515 -999 -999 -999 -999
2007-11-28 08:58:07 51°20.048 2°40.48 -999 -999 -999 -999
2007-11-28 08:58:12 51°20.052 2°40.45 -999 -999 -999 -999
2007-11-28 08:58:17 51°20.057 2°40.421 -999 -999 -999 -999
2007-11-28 08:58:21 51°20.061 2°40.398 -999 -999 -999 -999
2007-11-28 08:58:27 51°20.066 2°40.362 -999 -999 -999 -999
2007-11-28 08:58:32 51°20.07 2°40.333 -999 -999 -999 -999
2007-11-28 08:58:37 51°20.074 2°40.304 -999 -999 -999 -999
2007-11-28 08:58:41 51°20.078 2°40.281 -999 -999 -999 -999
2007-11-28 08:58:47 51°20.083 2°40.246 -999 -999 -999 -999
2007-11-28 08:58:52 51°20.088 2°40.217 -999 -999 -999 -999
2007-11-28 08:58:57 51°20.093 2°40.188 -999 -999 -999 -999
2007-11-28 08:59:01 51°20.096 2°40.164 -999 -999 -999 -999
2007-11-28 08:59:07 51°20.102 2°40.13 -999 -999 -999 -999
2007-11-28 08:59:12 51°20.106 2°40.101 -999 -999 -999 -999
2007-11-28 08:59:17 51°20.111 2°40.072 -999 -999 -999 -999
2007-11-28 08:59:22 51°20.115 2°40.043 -999 -999 -999 -999
2007-11-28 08:59:27 51°20.12 2°40.014 -999 -999 -999 -999
2007-11-28 08:59:32 51°20.124 2°39.984 -999 -999 -999 -999
2007-11-28 08:59:37 51°20.128 2°39.956 -999 -999 -999 -999
2007-11-28 08:59:41 51°20.131 2°39.932 -999 -999 -999 -999
2007-11-28 08:59:47 51°20.136 2°39.897 -999 -999 -999 -999
2007-11-28 08:59:52 51°20.14 2°39.868 -999 -999 -999 -999
2007-11-28 08:59:57 51°20.144 2°39.84 -999 -999 -999 -999
2007-11-28 09:00:02 51°20.148 2°39.81 -999 -999 -999 -999
2007-11-28 09:00:07 51°20.152 2°39.782 -999 -999 -999 -999
2007-11-28 09:00:12 51°20.157 2°39.753 -999 -999 -999 -999
2007-11-28 09:00:17 51°20.16 2°39.724 -999 -999 -999 -999
2007-11-28 09:00:21 51°20.164 2°39.7 -999 -999 -999 -999
2007-11-28 09:00:27 51°20.168 2°39.666 -999 -999 -999 -999
2007-11-28 09:00:32 51°20.172 2°39.636 -999 -999 -999 -999
2007-11-28 09:00:37 51°20.177 2°39.608 -999 -999 -999 -999
2007-11-28 09:00:41 51°20.18 2°39.584 -999 -999 -999 -999
2007-11-28 09:00:47 51°20.185 2°39.55 -999 -999 -999 -999
2007-11-28 09:00:52 51°20.19 2°39.521 -999 -999 -999 -999
2007-11-28 09:00:57 51°20.194 2°39.492 -999 -999 -999 -999
2007-11-28 09:01:02 51°20.198 2°39.462 -999 -999 -999 -999
2007-11-28 09:01:07 51°20.202 2°39.434 -999 -999 -999 -999
2007-11-28 09:01:12 51°20.206 2°39.405 -999 -999 -999 -999
2007-11-28 09:01:17 51°20.211 2°39.376 -999 -999 -999 -999
2007-11-28 09:01:22 51°20.215 2°39.347 -999 -999 -999 -999
2007-11-28 09:01:27 51°20.22 2°39.318 -999 -999 -999 -999
2007-11-28 09:01:32 51°20.224 2°39.288 -999 -999 -999 -999
2007-11-28 09:01:37 51°20.228 2°39.259 -999 -999 -999 -999
2007-11-28 09:01:41 51°20.231 2°39.236 -999 -999 -999 -999
2007-11-28 09:01:47 51°20.236 2°39.201 -999 -999 -999 -999
2007-11-28 09:01:52 51°20.241 2°39.172 -999 -999 -999 -999
2007-11-28 09:01:57 51°20.245 2°39.143 -999 -999 -999 -999
2007-11-28 09:02:01 51°20.248 2°39.12 -999 -999 -999 -999
2007-11-28 09:02:07 51°20.253 2°39.085 -999 -999 -999 -999
2007-11-28 09:02:12 51°20.257 2°39.056 -999 -999 -999 -999
2007-11-28 09:02:17 51°20.262 2°39.027 -999 -999 -999 -999
2007-11-28 09:02:21 51°20.265 2°39.003 -999 -999 -999 -999
2007-11-28 09:02:27 51°20.27 2°38.969 -999 -999 -999 -999
2007-11-28 09:02:32 51°20.274 2°38.94 -999 -999 -999 -999
2007-11-28 09:02:37 51°20.278 2°38.911 -999 -999 -999 -999
2007-11-28 09:02:41 51°20.281 2°38.888 -999 -999 -999 -999
2007-11-28 09:02:47 51°20.286 2°38.853 -999 -999 -999 -999
2007-11-28 09:02:52 51°20.29 2°38.824 -999 -999 -999 -999
2007-11-28 09:02:57 51°20.294 2°38.796 -999 -999 -999 -999
2007-11-28 09:03:01 51°20.298 2°38.773 -999 -999 -999 -999
2007-11-28 09:03:07 51°20.302 2°38.739 -999 -999 -999 -999
2007-11-28 09:03:12 51°20.306 2°38.71 -999 -999 -999 -999
2007-11-28 09:03:17 51°20.31 2°38.682 -999 -999 -999 -999
2007-11-28 09:03:21 51°20.313 2°38.659 -999 -999 -999 -999
2007-11-28 09:03:27 51°20.318 2°38.624 -999 -999 -999 -999
2007-11-28 09:03:32 51°20.322 2°38.595 -999 -999 -999 -999
2007-11-28 09:03:37 51°20.326 2°38.566 -999 -999 -999 -999
2007-11-28 09:03:42 51°20.331 2°38.538 -999 -999 -999 -999
2007-11-28 09:03:47 51°20.335 2°38.509 -999 -999 -999 -999
2007-11-28 09:03:52 51°20.339 2°38.48 -999 -999 -999 -999
2007-11-28 09:03:57 51°20.343 2°38.451 -999 -999 -999 -999
2007-11-28 09:04:01 51°20.347 2°38.428 -999 -999 -999 -999
2007-11-28 09:04:07 51°20.352 2°38.393 -999 -999 -999 -999
2007-11-28 09:04:12 51°20.356 2°38.364 -999 -999 -999 -999
2007-11-28 09:04:17 51°20.36 2°38.335 -999 -999 -999 -999
2007-11-28 09:04:22 51°20.364 2°38.306 -999 -999 -999 -999
2007-11-28 09:04:27 51°20.368 2°38.277 -999 -999 -999 -999
2007-11-28 09:04:32 51°20.373 2°38.249 -999 -999 -999 -999
2007-11-28 09:04:37 51°20.377 2°38.22 -999 -999 -999 -999
2007-11-28 09:04:41 51°20.381 2°38.197 -999 -999 -999 -999
2007-11-28 09:04:47 51°20.386 2°38.162 -999 -999 -999 -999
2007-11-28 09:04:52 51°20.39 2°38.133 -999 -999 -999 -999
2007-11-28 09:04:57 51°20.395 2°38.104 -999 -999 -999 -999
2007-11-28 09:05:01 51°20.398 2°38.081 -999 -999 -999 -999
2007-11-28 09:05:07 51°20.403 2°38.046 -999 -999 -999 -999
2007-11-28 09:05:12 51°20.407 2°38.018 -999 -999 -999 -999
2007-11-28 09:05:17 51°20.412 2°37.988 -999 -999 -999 -999
2007-11-28 09:05:21 51°20.415 2°37.965 -999 -999 -999 -999
2007-11-28 09:05:27 51°20.421 2°37.931 -999 -999 -999 -999
2007-11-28 09:05:32 51°20.425 2°37.902 -999 -999 -999 -999
2007-11-28 09:05:37 51°20.429 2°37.873 -999 -999 -999 -999
2007-11-28 09:05:42 51°20.433 2°37.844 -999 -999 -999 -999
2007-11-28 09:05:47 51°20.438 2°37.814 -999 -999 -999 -999
2007-11-28 09:05:52 51°20.442 2°37.785 -999 -999 -999 -999
2007-11-28 09:05:57 51°20.446 2°37.756 -999 -999 -999 -999
2007-11-28 09:06:01 51°20.45 2°37.733 -999 -999 -999 -999
2007-11-28 09:06:07 51°20.455 2°37.699 -999 -999 -999 -999
2007-11-28 09:06:12 51°20.46 2°37.67 -999 -999 -999 -999
2007-11-28 09:06:17 51°20.464 2°37.641 -999 -999 -999 -999
2007-11-28 09:06:21 51°20.467 2°37.617 -999 -999 -999 -999
2007-11-28 09:06:27 51°20.473 2°37.583 -999 -999 -999 -999
2007-11-28 09:06:32 51°20.477 2°37.554 -999 -999 -999 -999
2007-11-28 09:06:37 51°20.481 2°37.525 -999 -999 -999 -999
2007-11-28 09:06:42 51°20.486 2°37.496 -999 -999 -999 -999
2007-11-28 09:06:47 51°20.49 2°37.467 -999 -999 -999 -999
2007-11-28 09:06:52 51°20.494 2°37.438 -999 -999 -999 -999
2007-11-28 09:06:57 51°20.498 2°37.41 -999 -999 -999 -999
2007-11-28 09:07:01 51°20.502 2°37.386 -999 -999 -999 -999
2007-11-28 09:07:07 51°20.507 2°37.351 -999 -999 -999 -999
2007-11-28 09:07:12 51°20.512 2°37.322 -999 -999 -999 -999
2007-11-28 09:07:17 51°20.516 2°37.293 -999 -999 -999 -999
2007-11-28 09:07:21 51°20.52 2°37.27 -999 -999 -999 -999
2007-11-28 09:07:27 51°20.525 2°37.236 -999 -999 -999 -999
2007-11-28 09:07:32 51°20.53 2°37.206 -999 -999 -999 -999
2007-11-28 09:07:37 51°20.534 2°37.177 -999 -999 -999 -999
2007-11-28 09:07:41 51°20.537 2°37.154 -999 -999 -999 -999
2007-11-28 09:07:47 51°20.542 2°37.119 -999 -999 -999 -999
2007-11-28 09:07:52 51°20.547 2°37.09 -999 -999 -999 -999
2007-11-28 09:07:57 51°20.551 2°37.061 -999 -999 -999 -999
2007-11-28 09:08:01 51°20.555 2°37.038 -999 -999 -999 -999
2007-11-28 09:08:07 51°20.56 2°37.003 -999 -999 -999 -999
2007-11-28 09:08:12 51°20.564 2°36.974 -999 -999 -999 -999
2007-11-28 09:08:17 51°20.568 2°36.945 -999 -999 -999 -999
2007-11-28 09:08:21 51°20.572 2°36.922 -999 -999 -999 -999
2007-11-28 09:08:27 51°20.577 2°36.887 -999 -999 -999 -999
2007-11-28 09:08:32 51°20.581 2°36.858 -999 -999 -999 -999
2007-11-28 09:08:37 51°20.585 2°36.829 -999 -999 -999 -999
2007-11-28 09:08:42 51°20.589 2°36.8 -999 -999 -999 -999
2007-11-28 09:08:47 51°20.593 2°36.771 -999 -999 -999 -999
2007-11-28 09:08:52 51°20.598 2°36.742 -999 -999 -999 -999
2007-11-28 09:08:57 51°20.602 2°36.714 -999 -999 -999 -999
2007-11-28 09:09:01 51°20.606 2°36.69 -999 -999 -999 -999
2007-11-28 09:09:07 51°20.61 2°36.655 -999 -999 -999 -999
2007-11-28 09:09:12 51°20.615 2°36.626 -999 -999 -999 -999
2007-11-28 09:09:17 51°20.619 2°36.597 -999 -999 -999 -999
2007-11-28 09:09:22 51°20.623 2°36.568 -999 -999 -999 -999
2007-11-28 09:09:27 51°20.627 2°36.539 -999 -999 -999 -999
2007-11-28 09:09:32 51°20.631 2°36.509 -999 -999 -999 -999
2007-11-28 09:09:37 51°20.635 2°36.48 -999 -999 -999 -999
2007-11-28 09:09:41 51°20.639 2°36.456 -999 -999 -999 -999
2007-11-28 09:09:47 51°20.644 2°36.422 -999 -999 -999 -999
2007-11-28 09:09:52 51°20.648 2°36.392 -999 -999 -999 -999
2007-11-28 09:09:57 51°20.652 2°36.363 -999 -999 -999 -999
2007-11-28 09:10:01 51°20.655 2°36.339 -999 -999 -999 -999
2007-11-28 09:10:07 51°20.66 2°36.304 -999 -999 -999 -999
2007-11-28 09:10:12 51°20.664 2°36.275 -999 -999 -999 -999
2007-11-28 09:10:17 51°20.667 2°36.246 -999 -999 -999 -999
2007-11-28 09:10:21 51°20.671 2°36.223 -999 -999 -999 -999
2007-11-28 09:10:27 51°20.676 2°36.188 -999 -999 -999 -999
2007-11-28 09:10:32 51°20.68 2°36.158 -999 -999 -999 -999
2007-11-28 09:10:37 51°20.684 2°36.129 -999 -999 -999 -999
2007-11-28 09:10:41 51°20.688 2°36.105 -999 -999 -999 -999
2007-11-28 09:10:47 51°20.693 2°36.07 -999 -999 -999 -999
2007-11-28 09:10:52 51°20.697 2°36.04 -999 -999 -999 -999
2007-11-28 09:10:57 51°20.701 2°36.011 -999 -999 -999 -999
2007-11-28 09:11:02 51°20.706 2°35.982 -999 -999 -999 -999
2007-11-28 09:11:07 51°20.71 2°35.952 -999 -999 -999 -999
2007-11-28 09:11:12 51°20.714 2°35.923 -999 -999 -999 -999
2007-11-28 09:11:17 51°20.718 2°35.894 -999 -999 -999 -999
2007-11-28 09:11:21 51°20.721 2°35.87 -999 -999 -999 -999
2007-11-28 09:11:27 51°20.727 2°35.835 -999 -999 -999 -999
2007-11-28 09:11:32 51°20.731 2°35.805 -999 -999 -999 -999
2007-11-28 09:11:37 51°20.735 2°35.776 -999 -999 -999 -999
2007-11-28 09:11:41 51°20.738 2°35.753 -999 -999 -999 -999
2007-11-28 09:11:47 51°20.744 2°35.717 -999 -999 -999 -999
2007-11-28 09:11:52 51°20.747 2°35.688 -999 -999 -999 -999
2007-11-28 09:11:57 51°20.752 2°35.658 -999 -999 -999 -999
2007-11-28 09:12:01 51°20.756 2°35.635 -999 -999 -999 -999
2007-11-28 09:12:07 51°20.76 2°35.6 -999 -999 -999 -999
2007-11-28 09:12:12 51°20.765 2°35.57 -999 -999 -999 -999
2007-11-28 09:12:17 51°20.769 2°35.541 -999 -999 -999 -999
2007-11-28 09:12:21 51°20.772 2°35.517 -999 -999 -999 -999
2007-11-28 09:12:27 51°20.777 2°35.481 -999 -999 -999 -999
2007-11-28 09:12:32 51°20.781 2°35.452 -999 -999 -999 -999
2007-11-28 09:12:37 51°20.785 2°35.422 -999 -999 -999 -999
2007-11-28 09:12:41 51°20.788 2°35.399 -999 -999 -999 -999
2007-11-28 09:12:47 51°20.793 2°35.363 -999 -999 -999 -999
2007-11-28 09:12:52 51°20.798 2°35.334 -999 -999 -999 -999
2007-11-28 09:12:57 51°20.802 2°35.305 -999 -999 -999 -999
2007-11-28 09:13:02 51°20.806 2°35.275 -999 -999 -999 -999
2007-11-28 09:13:07 51°20.811 2°35.246 -999 -999 -999 -999
2007-11-28 09:13:12 51°20.815 2°35.217 -999 -999 -999 -999
2007-11-28 09:13:17 51°20.819 2°35.187 -999 -999 -999 -999
2007-11-28 09:13:21 51°20.822 2°35.164 -999 -999 -999 -999
2007-11-28 09:13:27 51°20.827 2°35.128 -999 -999 -999 -999
2007-11-28 09:13:32 51°20.831 2°35.098 -999 -999 -999 -999
2007-11-28 09:13:37 51°20.836 2°35.069 -999 -999 -999 -999
2007-11-28 09:13:42 51°20.84 2°35.04 -999 -999 -999 -999
2007-11-28 09:13:47 51°20.844 2°35.01 -999 -999 -999 -999
2007-11-28 09:13:52 51°20.849 2°34.981 -999 -999 -999 -999
2007-11-28 09:13:57 51°20.853 2°34.952 -999 -999 -999 -999
2007-11-28 09:14:01 51°20.856 2°34.928 -999 -999 -999 -999
2007-11-28 09:14:07 51°20.861 2°34.893 -999 -999 -999 -999
2007-11-28 09:14:12 51°20.865 2°34.864 -999 -999 -999 -999
2007-11-28 09:14:17 51°20.869 2°34.834 -999 -999 -999 -999
2007-11-28 09:14:21 51°20.873 2°34.811 -999 -999 -999 -999
2007-11-28 09:14:27 51°20.878 2°34.776 -999 -999 -999 -999
2007-11-28 09:14:32 51°20.882 2°34.746 -999 -999 -999 -999
2007-11-28 09:14:37 51°20.887 2°34.717 -999 -999 -999 -999
2007-11-28 09:14:42 51°20.891 2°34.688 -999 -999 -999 -999
2007-11-28 09:14:47 51°20.895 2°34.658 -999 -999 -999 -999
2007-11-28 09:14:52 51°20.899 2°34.629 -999 -999 -999 -999
2007-11-28 09:14:57 51°20.903 2°34.599 -999 -999 -999 -999
2007-11-28 09:15:02 51°20.907 2°34.569 -999 -999 -999 -999
2007-11-28 09:15:07 51°20.911 2°34.54 -999 -999 -999 -999
2007-11-28 09:15:12 51°20.915 2°34.511 -999 -999 -999 -999
2007-11-28 09:15:17 51°20.919 2°34.481 -999 -999 -999 -999
2007-11-28 09:15:21 51°20.922 2°34.458 -999 -999 -999 -999
2007-11-28 09:15:27 51°20.927 2°34.423 -999 -999 -999 -999
2007-11-28 09:15:32 51°20.932 2°34.394 -999 -999 -999 -999
2007-11-28 09:15:37 51°20.936 2°34.364 -999 -999 -999 -999
2007-11-28 09:15:42 51°20.94 2°34.335 -999 -999 -999 -999
2007-11-28 09:15:47 51°20.944 2°34.305 -999 -999 -999 -999
2007-11-28 09:15:52 51°20.948 2°34.276 -999 -999 -999 -999
2007-11-28 09:15:57 51°20.952 2°34.247 -999 -999 -999 -999
2007-11-28 09:16:01 51°20.955 2°34.223 -999 -999 -999 -999
2007-11-28 09:16:07 51°20.96 2°34.187 -999 -999 -999 -999
2007-11-28 09:16:12 51°20.964 2°34.158 -999 -999 -999 -999
2007-11-28 09:16:17 51°20.968 2°34.128 -999 -999 -999 -999
2007-11-28 09:16:21 51°20.971 2°34.105 -999 -999 -999 -999
2007-11-28 09:16:27 51°20.976 2°34.069 -999 -999 -999 -999
2007-11-28 09:16:32 51°20.98 2°34.04 -999 -999 -999 -999
2007-11-28 09:16:37 51°20.985 2°34.011 -999 -999 -999 -999
2007-11-28 09:16:41 51°20.988 2°33.987 -999 -999 -999 -999
2007-11-28 09:16:47 51°20.993 2°33.952 -999 -999 -999 -999
2007-11-28 09:16:52 51°20.997 2°33.923 -999 -999 -999 -999